#timestamp,LO_Frequency,Hit,StdDev 
1618702915.1,286047004.7,P
1618702935.9,286047005.0,P
1618702955.7,286047004.8,P
1618702975.5,286047006.4,Y
1618702995.4,286047001.5,P
1618703015.2,286047004.0,N
1618703035.1,286047002.3,N
1618703036.0,286047002.3,N
1618703055.8,286047002.7,N
1618703075.6,286047000.8,N
1618703095.5,286046998.2,N
1618703115.3,286047000.4,N
1618703135.1,286046999.9,N
1618703155.9,286046998.1,N
1618703175.7,286046998.6,N
1618703195.6,286047001.0,N
1618703215.4,286047000.6,N
1618703235.2,286047000.9,N
1618703255.1,286047000.5,N
1618703256.0,286047000.5,N
1618703275.8,286047002.6,N
1618703295.6,286047003.5,N
1618703315.5,286047005.4,N
1618703335.3,286047007.0,Y
1618703355.2,286047005.5,P
1618703375.9,286047002.9,N
1618703395.7,286047005.6,P
1618703415.6,286047003.5,N
1618703435.4,286047005.3,Y
1618703455.2,286047002.4,P
1618703475.1,286047000.2,N
1618703476.0,286047000.2,N
1618703495.8,286047001.9,N
1618703515.7,286047003.7,N
1618703535.5,286047004.1,N
1618703555.3,286047003.5,N
1618703575.2,286047003.6,N
1618703595.0,286047003.6,N
1618703595.9,286047003.6,N
1618703615.8,286047007.6,Y
1618703635.6,286047002.3,P
1618703655.4,286047002.2,P
1618703675.3,286047002.3,P
1618703695.1,286047002.8,Y
1618703715.8,286047001.0,P
1618703735.7,286046999.3,N
1618703755.5,286046998.8,N
1618703775.4,286047001.2,N
1618703795.2,286046998.6,N
1618703815.0,286046999.6,N
1618703815.9,286046999.6,N
1618703835.8,286046999.6,N
1618703855.6,286047001.1,N
1618703875.4,286047000.5,N
1618703895.3,286047000.7,N
1618703915.1,286047002.4,N
1618703935.8,286047002.7,N
1618703955.7,286047001.4,N
1618703975.5,286047004.1,Y
1618703995.4,286047003.8,P
